Flag for Argentina Weather past 2 weeks in Zárate, Buenos Aires, Argentina

Now
84 °F

Scattered clouds.


Feels Like: 87 °F
Forecast: 62 / 92 °F
Wind: 12 mph from Northeast

Location: Buenos Aires Airport

Current Time: Dec 18, 2014 at 4:08:42 PM

Latest Report: Dec 18, 2014 at 4:00 PM


Visibility: N/A

Pressure: 29.77 "Hg

Humidity: 55%

Dew point: 66 °F

Location of ZárateLocation

Historic Weather in Zárate — Graph

°F

Zárate temperature yesterday

Maximum temperature yesterday: 88 °F (at 2:00 PM)
Minimum temperature yesterday: 72 °F (at 5:00 AM)
Average temperature yesterday: 79 °F

Past Weeks' High & Low Weather Summary

 TemperatureHumidityPressure
High88 °F (Dec 6, 4:00 PM)94% (Dec 7, 4:00 PM)30.12 "Hg (Dec 7, 4:00 PM)
Low61 °F (Dec 11, 5:00 AM)35% (Dec 13, 1:00 PM)29.53 "Hg (Dec 9, 6:00 PM)
Average74 °F68%29.91 "Hg
* Reported Dec 3 3:00 PM — Dec 18 3:00 PM, Zárate, Weather by CustomWeather, © 2014

Note: Actual official high and low records may vary slightly from our data, if they occured in-between our weather recording intervals... More about our weather records

Advertising

Zárate weather history for previous 24 hours

 ConditionsComfort  
Time TempWeatherWind HumidityBarometerVisibility
3:00 PM
Dec 18
82 °FScattered clouds.10 mph62%29.80 "HgN/A
2:00 PM81 °FScattered clouds.8 mph62%29.83 "HgN/A
1:00 PM79 °FPassing clouds.7 mph70%29.86 "HgN/A
12:00 PM79 °FPassing clouds.7 mph70%29.89 "HgN/A
11:00 AM77 °FSunny.6 mph74%29.89 "Hg10 mi
10:00 AM75 °FSunny.5 mph78%29.89 "Hg10 mi
9:00 AM75 °FSunny.6 mph78%29.92 "Hg10 mi
8:00 AM75 °FSunny.5 mph74%29.92 "Hg10 mi
7:00 AM72 °FSunny.3 mph78%29.89 "Hg10 mi
6:00 AM70 °FSunny.No wind78%29.89 "Hg10 mi
5:00 AM70 °FSunny.No wind78%29.86 "Hg10 mi
4:00 AM70 °FClear.5 mph78%29.86 "Hg10 mi
3:00 AM70 °FClear.No wind83%29.86 "Hg10 mi
2:00 AM73 °FClear.No wind69%29.89 "Hg10 mi
1:00 AM73 °FClear.5 mph69%29.89 "Hg10 mi
12:00 AM72 °FClear.7 mph78%29.89 "Hg10 mi
11:00 PM
Dec 17
72 °FClear.13 mph73%29.92 "Hg10 mi
10:00 PM73 °FPassing clouds.20 mph61%29.89 "HgN/A
9:00 PM75 °FThunderstorms. Passing clouds.10 mph57%29.86 "HgN/A
8:00 PM79 °FScattered showers. Passing clouds.24 mph48%29.86 "Hg3 mi
7:48 PM86 °FPassing clouds.25 mph40%29.86 "Hg3 mi
7:00 PM86 °FPassing clouds.9 mph40%29.83 "HgN/A
6:00 PM86 °FScattered clouds.9 mph43%29.80 "HgN/A
5:00 PM88 °FScattered clouds.12 mph43%29.80 "HgN/A
4:00 PM88 °FScattered clouds.14 mph46%29.83 "HgN/A
Weather by CustomWeather, © 2014

See weather overviewHow to use our weather pages